Flag for U.S.A. Weather past 2 weeks in Citrus Heights, California, U.S.A.

Now
59 °F

Sunny.


Feels Like: 59 °F
Forecast: 38 / 68 °F
Wind: No wind

Location: Mather Field

Current Time: Mar 4, 2015 at 7:37:56 PM

Latest Report: Mar 4, 2015 at 5:45 PM


Visibility: 10 mi

Pressure: 30.15 "Hg

Humidity: 48%

Dew point: 39 °F

Location of Citrus HeightsLocation

Historic Weather in Citrus Heights — Graph

°F

Citrus Heights temperature yesterday

Maximum temperature yesterday: 64 °F (at 1:58 PM)
Minimum temperature yesterday: 37 °F (at 4:49 AM)
Average temperature yesterday: 51 °F

Past Weeks' High & Low Weather Summary

 TemperatureHumidityPressure
High72 °F (Feb 26, 2:45 PM)100% (Feb 17, 9:45 PM)30.36 "Hg (Feb 17, 9:45 PM)
Low30 °F (Feb 24, 4:52 AM)19% (Feb 22, 4:46 PM)29.66 "Hg (Feb 27, 4:50 PM)
Average51 °F74%30.01 "Hg
* Reported Feb 17 5:45 PM — Mar 4 5:45 PM, Citrus Heights, Weather by CustomWeather, © 2015

Note: Actual official high and low records may vary slightly from our data, if they occured in-between our weather recording intervals... More about our weather records

Advertising

Citrus Heights weather history for previous 24 hours

 ConditionsComfort  
Time TempWeatherWind HumidityBarometerVisibility
5:45 PM
Wed, Mar 4
59 °FSunny.No wind48%30.15 "Hg10 mi
4:45 PM63 °FSunny.5 mph42%30.14 "Hg10 mi
2:47 PM64 °FSunny.7 mph37%30.13 "Hg10 mi
1:45 PM63 °FSunny.6 mph39%30.14 "Hg10 mi
12:45 PM61 °FSunny.6 mph45%30.15 "Hg10 mi
11:47 AM59 °FSunny.3 mph59%30.16 "Hg10 mi
10:55 AM55 °FSunny.5 mph67%30.16 "Hg10 mi
9:45 AM54 °FSunny.8 mph67%30.15 "Hg10 mi
8:45 AM48 °FPassing clouds.8 mph71%30.13 "Hg10 mi
7:45 AM41 °FPassing clouds.3 mph81%30.11 "Hg10 mi
6:50 AM36 °FPassing clouds.5 mph87%30.08 "Hg10 mi
5:46 AM32 °FClear.N/A100%30.06 "HgN/A
4:46 AM36 °FClear.No wind87%30.04 "Hg10 mi
3:46 AM36 °FClear.No wind87%30.02 "Hg10 mi
2:46 AM36 °FClear.6 mph87%30.01 "Hg10 mi
10:45 PM
Tue, Mar 3
48 °FClear.No wind66%29.99 "Hg10 mi
8:45 PM46 °FClear.No wind71%29.98 "Hg10 mi
7:45 PM50 °FClear.3 mph62%29.97 "Hg10 mi
Weather by CustomWeather, © 2015

See weather overviewHow to use our weather pages